Location: Unspecified
(42.3650°N, 71.1030°W)
Time: 16:35:02
(UTC+00:00)

S-56A Canister/Altair - Pass Details

Date: 26 June 2024
Orbit: 638 x 2487 km, 38.9° (Epoch: 20 July)

Event Time Altitude Azimuth Distance (km) Brightness Sun altitude
Rises 01:33:17 0° 250° (WSW) 3,933 11.5 -10.5°
Reaches altitude 10° 01:35:38 10° 247° (WSW) 3,175 11.0 -10.8°
Maximum altitude 01:43:43 68° 167° (SSE) 1,722 9.1 -11.8°
Drops below altitude 10° 01:55:58 10° 88° (E) 4,670 11.2 -13.3°
Sets 02:00:11 0° 86° (E) 5,875 11.7 -13.8°
